EHI
0 0 0 0 0 0 0 0 0 0 0 0 0 0 0 0 0 0 0 0 0 0 0 0 0 0 0 0 0 0 0 0 0 0 0 0 0 0
0 0 0 0 0 0 0 0 0 0 0 0 0 0 0 0 0 0 0 0 0 0 0 0 0 0 0 0 0 0 0 0 0 0 0 0 0 0
0 0 0 0 0 0 0 0 0 0 0 0 0 0 0 0 0 0 0 0 0 0 0 0 0 0 0 0 0 0 0 0 0 0 0 0 0 0
0 0 0 0 0 0 0 0 0 0 0 0 0 0 0 0 0 0 0 0 0 0 0 0 0 0 0 0 0 0 0 0 0 0 0 0 0 0
0 0 0 0 0 0 0 0 0 0 0 0 0 0 0 0 0 0 0 0 0 0 0 0 0 0 0 0 0 0 0 0 0 0 0 0 0 0
0 0 0 0 0 0 0 0 0 0 0 0 0 0 0 0 0 0 0 0 0 0 0 0 0 0 0 0 0 0 0 0 0 0 0 0 0 0
0 0 0 0 0 0 0 0 0 0 0 0 0 0 0 0 0 0 0 0 0 0 0 0 0 0 0 0 0 0 0 0 0 0 0 0 0 0
0 0 0 0 0 0 0 0 0 0 0 0 0 0 0 0 0 0 0 0 0 0 0 0 0 0 0 0 0 0 0 0 0 0 0 0 0 0
0 0 0 0 0 0 0 0 0 0 0 0 0 0 0 0 0 0 0 0 0 0 0 0 0 0 0 0 0 0 0 0 0 0 0 0 0 0
0 0 0 0 0 0 0 0 0 0 0 0 0 0 0 0 0 0 0 0 0 0 0 0 0 0 0 0 0 0 0 0 0 0 0 0 0 0
0 0 0 0 0 0 0 0 0 0 0 0 0 0 0 0 0 0 0 0 0 0 0 0 0 0 0 0 0 0 0 0 0 0 0 0 0 0
0 0 0 0 0 0 0 0 0 0 0 0 0 0 0 0 0 0 0 0 0 0 0 0 0 0 0 0 0 0 0 0 0 0 0 0 0 0
0 0 0 0 0 0 0 0 0 0 0 0 0 0 0 0 0 0 0 0 0 0 0 0 0 0 0 0 0 0 0 0 0 0 0 0 0 0
0 0 0 0 0 0 0 0 0 0 0 0 0 0 0 0 0 0 0 0 0 0 0 0 0 0 0 0 0 0 0 0 0 0 0 0 0 0
0 0 0 0 0 0 0 0 0 0 0 0 0 0 0 0 0 0 0 0 0 0 0 0 0 0 0 0 0 0 0 0 0 0 0 0 0 0
0 0 0 0 0 0 0 0 0 0 0 0 0 0 0 0 0 0 0 0 0 0 0 0 0 0 0 0 0 0 0 0 0 0 0 0 0 0
0 0 0 0 0 0 0 0 0 0 0 0 0 0 0 0 0 0 0 0 0 0 0 0 0 0 0 0 0 0 0 0 0 0 0 0 0 0
0 0 0 0 0 0 0 0 0 0 0 0 0 0 0 0 0 0 0 0 0 0 0 0 0 0 0 0 0 0 0 0 0 0 0 0 0 0
0 0 0 0 0 0 0 0 0 0 0 0 0 0 0 0 0 0 0 0 0 0 0 0 0 0 0 0 0 0 0 0 0 0 0 0 0 0
0 0 0 0 0 0 0 0 0 0 0 0 0 0 0 0 0 0 0 0 0 0 0 0 0 0 0 0 0 0 0 0 0 0 0 0 0 0
0 0 0 0 0 0 0 0 0 0 0 0 0 0 0 0 0 0 0 0 0 0 0 0 0 0 0 0 0 0 0 0 0 0 0 0 0 0
0 0 0 0 0 0 0 0 0 0 0 0 0 0 0 0 0 0 0 0 0 0 0 0 0 0 0 0 0 0 0 0 0 0 0 0 0 0
0 0 0 0 0 0 0 0 0 0 0 0 0 0 0 0 0 0 0 0 0 0 0 0 0 0 0 0 0 0 0 0 0 0 0 0 0 0
Wind_Speed
3 3 2 2 2 2 2 2 2 4 5 3 2 2 3 2 3 3 3 6 8 9 9 9 9 10 11 12 13 13 13 13 13 11 10 10 11 12
2 2 2 2 1 2 2 2 2 3 4 3 3 4 4 3 5 4 3 7 8 10 10 9 9 10 11 11 12 12 11 12 12 10 10 9 10 9
2 2 2 2 1 1 1 1 1 2 4 4 3 3 4 4 4 3 3 4 4 9 9 9 9 9 11 11 10 10 11 11 10 9 8 8 9 9
2 2 2 1 1 1 1 1 1 2 2 4 3 3 3 3 3 4 4 4 4 8 9 9 9 9 9 8 8 8 9 9 9 8 7 8 9 9
2 2 1 1 1 0 0 1 1 1 1 2 3 3 2 3 3 4 5 4 5 7 9 9 9 9 8 8 8 8 9 9 8 7 8 8 9 9
1 1 1 1 1 1 1 1 1 1 1 1 2 3 3 3 3 4 5 4 5 5 7 8 9 9 9 10 9 9 9 8 8 8 8 8 8 9
1 0 0 1 1 1 1 1 0 1 1 1 2 2 3 3 3 3 4 4 4 4 5 5 5 4 5 8 9 9 9 8 8 8 8 8 8 9
1 1 1 1 1 2 2 2 1 1 1 1 2 2 3 2 2 3 4 4 5 4 4 5 4 4 4 4 8 10 9 9 9 9 9 8 8 8
1 1 1 1 2 1 3 4 4 4 3 1 1 2 2 3 2 3 3 3 4 5 5 5 4 4 5 6 11 10 10 10 9 9 9 8 7 7
1 1 1 1 1 2 2 3 3 4 3 2 1 1 2 2 2 2 3 3 3 3 4 4 4 4 5 4 9 10 11 11 10 10 9 8 8 7
2 2 2 2 3 3 3 3 3 3 5 5 5 4 6 7 5 3 3 3 4 4 3 3 4 4 4 4 6 10 11 12 12 11 10 9 8 8
2 3 3 3 3 4 2 2 2 2 2 3 4 5 5 6 7 4 2 2 3 3 3 3 3 4 4 3 4 5 6 10 12 11 11 10 9 5
2 2 2 5 5 6 4 2 2 2 2 2 2 3 3 3 4 3 3 2 2 2 3 3 3 3 3 4 4 4 4 5 5 6 9 11 10 7
2 2 2 5 6 6 4 4 4 4 2 2 3 3 3 3 3 3 3 2 2 2 4 3 2 3 3 4 4 4 4 4 4 4 4 8 9 9
2 4 4 5 5 4 5 5 4 3 2 2 2 2 2 2 2 2 3 3 3 3 3 2 2 2 2 3 4 4 4 4 3 4 4 4 4 4
3 4 5 6 5 4 4 4 3 2 2 1 1 2 2 2 2 2 3 3 3 3 4 3 3 2 2 2 3 3 3 3 5 5 4 4 3 3
2 2 3 3 3 3 3 2 2 2 2 1 1 2 2 2 3 2 2 2 2 3 4 4 3 2 1 2 2 3 3 4 4 5 5 4 4 3
3 2 2 2 2 2 2 2 2 2 2 1 2 1 2 2 2 2 2 2 2 3 3 4 4 3 3 2 2 2 3 3 4 4 3 3 4 4
3 2 1 1 1 1 1 1 1 2 2 1 1 1 1 2 2 2 2 2 2 2 3 3 3 3 4 4 4 3 3 4 4 4 3 3 3 5
2 2 1 1 1 1 1 1 1 1 1 1 1 1 1 1 2 2 2 2 2 2 3 3 2 2 2 3 3 4 5 4 4 4 4 3 3 5
2 2 1 1 1 1 1 1 1 1 1 1 1 1 1 1 1 2 2 3 3 2 3 3 3 4 2 1 2 4 4 5 4 3 4 4 4 3
2 2 1 1 1 1 1 1 1 1 1 1 1 1 1 1 1 2 2 2 2 2 2 2 3 3 2 2 3 4 5 5 6 6 5 3 2 2
2 2 2 2 1 1 1 1 1 1 1 1 1 1 1 1 1 1 1 1 1 2 2 2 3 2 2 2 2 3 5 5 4 5 4 6 6 5
Wind_Direction
232 230 238 250 248 252 242 234 245 281 292 300 315 319 317 320 313 311 299 298 303 299 296 289 288 291 295 298 297 290 290 292 292 287 280 278 276 277
223 222 241 256 254 253 250 253 240 250 276 290 303 307 312 318 317 318 309 309 304 302 300 299 297 296 296 297 296 291 289 291 292 287 282 282 284 286
231 226 243 258 254 256 262 265 261 245 264 289 301 315 318 316 320 323 315 309 305 312 312 305 303 304 302 294 293 296 291 290 289 285 283 287 291 293
232 221 239 250 262 260 250 271 270 261 252 281 301 311 315 315 326 326 329 329 326 322 325 319 315 317 312 309 309 312 310 301 297 294 296 297 298 299
227 210 221 214 251 252 275 287 301 312 292 273 299 314 321 336 343 339 340 338 335 339 343 337 334 332 331 332 330 326 323 315 304 300 301 301 301 300
219 196 212 212 217 206 255 283 327 343 340 323 310 313 324 336 347 339 333 336 333 339 341 337 337 339 342 337 333 328 325 320 313 311 308 305 300 299
67 69 325 301 288 294 266 244 308 311 317 303 303 317 325 339 333 324 324 325 328 342 336 336 336 338 337 333 333 330 326 323 322 318 312 306 302 299
65 58 38 58 42 2 346 338 310 289 277 289 301 314 319 323 327 330 328 329 326 341 340 330 341 338 334 333 334 335 334 331 328 324 318 313 308 306
96 83 48 42 25 53 29 22 16 3 341 303 297 308 311 322 322 327 329 325 311 316 327 322 334 333 330 344 352 354 350 343 340 336 332 328 322 313
69 79 83 66 46 56 58 41 28 17 10 15 34 5 2 353 342 318 311 321 318 332 341 322 327 327 331 338 351 356 356 354 350 347 343 340 334 329
50 53 64 77 53 46 59 54 34 23 32 40 37 34 24 13 2 359 350 345 331 331 348 334 320 321 325 333 344 352 355 357 356 357 354 350 351 349
46 49 47 49 46 34 50 67 48 9 22 27 29 26 22 17 11 7 346 332 319 318 339 342 325 333 329 333 347 346 348 352 353 358 0 359 355 354
54 41 42 43 36 35 32 46 56 18 23 33 34 27 20 15 10 12 9 351 323 307 325 340 325 333 321 316 328 339 346 343 344 351 2 4 3 5
65 48 51 44 38 36 37 48 41 25 38 44 38 19 9 4 359 3 4 360 341 306 311 318 308 319 318 316 316 326 337 339 344 344 348 355 1 7
65 60 51 43 35 38 43 39 31 37 45 43 29 8 358 350 347 348 349 346 344 338 332 326 306 311 310 303 308 318 326 334 344 348 346 347 344 346
57 55 46 42 40 38 32 33 38 50 51 44 17 360 355 359 0 353 345 340 353 351 348 346 339 330 321 311 306 316 328 320 331 338 335 336 336 341
62 52 41 36 34 30 29 30 32 34 29 22 24 16 7 3 359 357 354 354 359 350 350 349 345 345 337 319 319 323 324 322 323 328 333 339 337 336
72 70 49 36 35 31 25 17 18 22 18 23 30 23 7 356 352 356 1 6 360 354 347 337 341 346 353 4 342 317 328 322 324 328 326 333 330 331
63 63 48 32 23 19 14 10 3 1 11 25 26 14 5 354 351 353 356 360 354 350 347 346 355 1 2 350 335 344 320 320 328 333 331 326 314 315
45 46 30 14 11 7 0 359 3 11 17 15 13 2 354 351 353 352 355 348 346 349 354 1 359 349 329 310 308 320 329 316 325 329 327 321 307 311
21 12 5 357 351 352 355 357 4 7 1 2 357 337 332 341 340 337 342 344 348 354 354 344 319 318 299 317 326 325 328 334 325 312 317 328 333 341
0 349 345 343 340 333 335 344 352 352 344 334 323 323 324 323 318 321 333 339 338 339 335 325 328 343 360 360 340 327 327 333 341 341 327 300 305 326
334 328 326 325 329 329 329 329 313 309 302 290 297 305 315 323 318 318 327 328 329 332 340 344 349 0 357 342 334 330 334 337 342 353 351 350 343 312